[[{"header":{"parameterUnit":"m.s-1","parameterCategory":1,"la1":30.2991,"la2":30.254,"lo1":-89.0895,"lo2":-89.0444,"dy":0.0017,"dx":0.0017,"nx":28,"ny":28,"refTime":"2023-10-27T03:00:00:Z","depth":0,"parameterNumber":2,"parameterNumberName":"U-component_of_WINDS"},"data":[0,0,0,0,0,0,0,0,0,0,0,0,0,0,0,0,0,0,0,0,0,0,0,0,0,0,0,0,0,0,0,0,0,0,0,0,0,0,0,0,0,0,0,0,0,0,0,0,0,0,0,0,0,0,0,0,0,0,-3.1613,-3.1614,0,-3.169,-3.1691,-3.1692,-3.1655,-3.1653,-3.1651,-3.1649,-3.1727,-3.1731,-3.1735,0,0,0,0,0,0,0,0,0,0,0,0,0,-3.1436,-3.144,-3.1613,-3.1614,-3.1615,-3.169,-3.1691,-3.1692,-3.1655,-3.1653,-3.1651,-3.1648,-3.1726,-3.173,-3.1735,0,0,0,0,0,0,0,0,0,0,0,0,0,-3.1513,-3.1441,-3.1613,-3.1606,-3.1606,-3.1689,-3.1691,-3.1692,-3.1656,-3.1653,-3.165,-3.1647,-3.1724,-3.173,-3.1736,-3.183,0,0,-3.1753,-3.1756,0,0,0,0,0,0,0,0,-3.1509,-3.1519,-3.1606,-3.1606,-3.1607,-3.166,-3.1657,-3.1738,-3.1657,-3.1637,-3.1649,-3.1646,-3.1707,-3.1714,-3.1735,-3.1834,-3.1837,-3.1754,-3.1758,-3.176,-3.1762,0,0,0,0,0,0,0,-3.1503,-3.1516,-3.1643,-3.1607,-3.1608,-3.1599,-3.1607,-3.1672,-3.1687,-3.1638,-3.1636,-3.1646,-3.1707,-3.1729,-3.1736,-3.1838,-3.1754,-3.1759,-3.1763,-3.1765,-3.2022,-3.2025,0,0,0,0,0,0,-3.1498,-3.1512,-3.1641,-3.1646,-3.1549,-3.1605,-3.1613,-3.1646,-3.1687,-3.169,-3.1648,-3.1644,-3.1721,-3.173,-3.1739,-3.1854,-3.176,-3.1765,-3.1769,-3.2019,-3.2023,-3.2026,0,0,0,0,0,0,-3.1495,-3.151,-3.1638,-3.1578,-3.1594,-3.1611,-3.1648,-3.1649,-3.1671,-3.1694,-3.1696,-3.1668,-3.1719,-3.1731,-3.1809,-3.1856,-3.1768,-3.1773,-3.2015,-3.202,-3.2024,-3.2083,0,0,0,0,0,0,-3.149,-3.1509,-3.1544,-3.1579,-3.1597,-3.1706,-3.165,-3.1652,-3.1682,-3.1677,-3.1713,-3.1717,-3.1717,-3.18,-3.1814,-3.1862,-3.1778,-3.201,-3.2017,-3.2023,-3.2077,-3.2089,-3.21,0,0,0,0,0,-3.1483,-3.1557,-3.1546,-3.1562,-3.1642,-3.1708,-3.1718,-3.1718,-3.1686,-3.1722,-3.1737,-3.1716,-3.1849,-3.1808,-3.1824,-3.1874,-3.2007,-3.2015,-3.2022,-3.2072,-3.2087,-3.21,0,0,0,0,0,0,-3.1526,-3.1561,-3.155,-3.1637,-3.167,-3.1702,-3.1747,-3.1734,-3.1776,-3.177,-3.1767,-3.1776,-3.1857,-3.1874,-3.1828,-3.197,-3.1923,-3.1934,-3.1955,-3.197,-3.1981,-3.1975,-3.1783,0,0,0,0,0,-3.1546,-3.1597,-3.1625,-3.1699,-3.1717,-3.173,-3.1758,-3.1756,-3.179,-3.1803,-3.1824,-3.1858,-3.1907,-3.194,-3.1987,-3.208,-3.2088,-3.2123,-3.2134,-3.2144,-3.2153,-3.2205,-3.2221,-3.2051,-3.2051,-3.2051,0,0,-3.1587,-3.1612,-3.1644,-3.1709,-3.1734,-3.1787,-3.1741,-3.1799,-3.1839,-3.1812,-3.1886,-3.1904,-3.1941,-3.2028,-3.2067,-3.2044,-3.2202,-3.2153,-3.2161,-3.2165,-3.2215,-3.2231,-3.2245,-3.2056,-3.2055,-3.2054,0,0,-3.1688,-3.1713,-3.1778,-3.1805,-3.1845,-3.1853,-3.1869,-3.1904,-3.1915,-3.199,-3.1972,-3.202,-3.2105,-3.2133,-3.2159,-3.2276,-3.2258,-3.2291,-3.2351,-3.2402,-3.2416,-3.2428,-3.247,-3.2485,-3.23,-3.2301,-3.2301,0,-3.1733,-3.1813,-3.1813,-3.1873,-3.1903,-3.1883,-3.1949,-3.1975,-3.2028,-3.2049,-3.2024,-3.2132,-3.2156,-3.225,-3.2279,-3.23,-3.2319,-3.2286,-3.2414,-3.2426,-3.2437,-3.2477,-3.2493,-3.2304,-3.2304,-3.2304,-3.2303,0,-3.1867,-3.1923,-3.1971,-3.2024,-3.2059,-3.2122,-3.2133,-3.2169,-3.2164,-3.2176,-3.2254,-3.2283,-3.2337,-3.2359,-3.2354,-3.2453,-3.2438,-3.2414,-3.2366,-3.2457,-3.2495,-3.251,-3.231,-3.2308,-3.2307,-3.2306,0,0,-3.1994,-3.2049,-3.2067,-3.2091,-3.2135,-3.2179,-3.2243,-3.2295,-3.2327,-3.2365,-3.2418,-3.2493,-3.2472,-3.2501,-3.25,-3.2545,-3.2637,-3.2515,-3.2516,-3.2537,-3.2749,-3.2767,-3.2785,-3.2627,-3.263,-3.2632,-3.2746,0,-3.2099,-3.221,-3.2213,-3.2315,-3.2367,-3.2351,-3.2407,-3.244,-3.2454,-3.2501,-3.2517,-3.257,-3.2537,-3.2555,-3.2599,-3.2617,-3.268,-3.2609,-3.2677,-3.2679,-3.2667,-3.2804,-3.2822,-3.2928,-3.2761,-3.2763,-3.2765,0,-3.2234,-3.2279,-3.2386,-3.2425,-3.2447,-3.2497,-3.2547,-3.2592,-3.2631,-3.2638,-3.2673,-3.2666,-3.2733,-3.2686,-3.2777,-3.2729,-3.2758,-3.2771,-3.2775,-3.278,-3.2727,-3.2813,-3.2962,-3.2977,-3.2789,-3.2787,-3.2785,0,-3.2317,-3.2403,-3.2478,-3.25,-3.2548,-3.2583,-3.2605,-3.2641,-3.2674,-3.2718,-3.274,-3.2791,-3.2819,-3.286,-3.2868,-3.2833,-3.2961,-3.2914,-3.2969,-3.2969,-3.2995,-3.2993,-3.315,-3.3015,-3.3015,-3.3015,-3.3014,0,-3.2432,-3.2498,-3.2516,-3.2563,-3.2637,-3.2642,-3.2716,-3.2735,-3.2768,-3.2818,-3.2808,-3.2856,-3.2864,-3.2915,-3.2922,-3.2997,-3.301,-3.3018,-3.3019,-3.3019,-3.3018,-3.3036,-3.3029,-3.3019,-3.3018,-3.3017,-3.3017,0,-3.2535,-3.255,-3.2631,-3.2671,-3.2683,-3.2736,-3.277,-3.2815,-3.2829,-3.2894,-3.2909,-3.2932,-3.299,-3.3003,-3.3073,-3.3078,-3.3168,-3.3162,-3.3155,-3.3154,-3.3208,-3.3203,-3.3382,-3.3406,-3.3256,-3.3258,-3.3259,0,-3.2607,-3.2658,-3.2704,-3.2737,-3.2761,-3.2815,-3.2849,-3.2857,-3.2892,-3.2943,-3.2982,-3.3041,-3.3087,-3.3183,-3.3205,-3.3259,-3.3254,-3.3313,-3.3262,-3.3261,-3.3255,-3.3251,-3.3257,-3.3322,-3.3324,-3.3325,-3.3326,0,-3.2733,-3.2739,-3.2788,-3.2841,-3.2883,-3.2925,-3.2964,-3.2993,-3.3007,-3.3048,-3.3109,-3.3145,-3.3218,-3.3276,-3.3331,-3.3354,-3.3343,-3.3343,-3.3359,-3.3358,-3.3351,-3.3356,-3.3181,-3.3338,-3.3337,-3.3336,-3.3335,-3.3335,-3.2823,-3.2868,-3.2908,-3.2964,-3.2996,-3.3034,-3.3079,-3.31,-3.3151,-3.3211,-3.3213,-3.328,-3.332,-3.3393,-3.342,-3.3473,-3.3454,-3.3477,-3.3482,-3.3487,-3.3492,-3.3345,-3.3483,-3.3483,-3.3482,-3.3482,-3.3482,0,-3.2948,-3.2974,-3.3026,-3.3083,-3.3128,-3.3116,-3.316,-3.3199,-3.3257,-3.3296,-3.3344,-3.3415,-3.3472,-3.3501,-3.3558,-3.3595,-3.3592,-3.361,-3.3606,-3.3612,-3.3505,-3.3486,-3.3612,-3.3612,-3.3612,-3.3612,-3.3612,-3.3612,-3.3019,-3.3095,-3.3106,-3.3199,-3.3224,-3.3289,-3.3316,-3.3352,-3.3384,-3.3464,-3.3512,-3.3531,-3.3567,-3.3627,-3.368,-3.3687,-3.3708,-3.3729,-3.3734,-3.3633,-3.3619,-3.3607,-3.3589,-3.3734,-3.3734,-3.3836,-3.3837,-3.3838]},{"header":{"parameterUnit":"m.s-1","parameterCategory":1,"la1":30.2991,"la2":30.254,"lo1":-89.0895,"lo2":-89.0444,"dy":0.0017,"dx":0.0017,"nx":28,"ny":28,"refTime":"2023-10-27T03:00:00:Z","depth":0,"parameterNumber":3,"parameterNumberName":"V-component_of_WINDS"},"data":[0,0,0,0,0,0,0,0,0,0,0,0,0,0,0,0,0,0,0,0,0,0,0,0,0,0,0,0,0,0,0,0,0,0,0,0,0,0,0,0,0,0,0,0,0,0,0,0,0,0,0,0,0,0,0,0,0,0,1.1061,1.1062,0,1.1111,1.1111,1.1112,1.1084,1.1082,1.1081,1.1079,1.1129,1.1132,1.1134,0,0,0,0,0,0,0,0,0,0,0,0,0,1.0944,1.0946,1.1061,1.1062,1.1062,1.1111,1.1111,1.1112,1.1084,1.1082,1.108,1.1079,1.1128,1.1131,1.1134,0,0,0,0,0,0,0,0,0,0,0,0,0,1.0994,1.0947,1.1061,1.1054,1.1054,1.111,1.1111,1.1112,1.1084,1.1082,1.108,1.1078,1.1127,1.1131,1.1135,1.12,0,0,1.1147,1.1148,0,0,0,0,0,0,0,0,1.0992,1.0999,1.1055,1.1055,1.1055,1.1089,1.1088,1.1142,1.1085,1.1073,1.1079,1.1077,1.1117,1.1122,1.1136,1.1203,1.1205,1.1147,1.1149,1.1151,1.1152,0,0,0,0,0,0,0,1.0988,1.0996,1.1081,1.1055,1.1056,1.1049,1.1054,1.1098,1.1106,1.1074,1.1072,1.1078,1.1117,1.1132,1.1137,1.1205,1.1147,1.115,1.1153,1.1154,1.1333,1.1335,0,0,0,0,0,0,1.0985,1.0994,1.1079,1.1082,1.1017,1.1053,1.1058,1.108,1.1105,1.1107,1.108,1.1076,1.1126,1.1132,1.1138,1.1219,1.1151,1.1155,1.1157,1.133,1.1333,1.1336,0,0,0,0,0,0,1.0983,1.0993,1.1077,1.1038,1.1048,1.1057,1.1082,1.1082,1.1097,1.111,1.1111,1.1094,1.1125,1.1133,1.1186,1.122,1.1156,1.116,1.1328,1.1331,1.1335,1.138,0,0,0,0,0,0,1.0979,1.0992,1.1016,1.1038,1.105,1.1124,1.1084,1.1085,1.1104,1.11,1.1123,1.1125,1.1124,1.118,1.119,1.1224,1.1163,1.1324,1.1329,1.1333,1.1375,1.1384,1.1392,0,0,0,0,0,1.0975,1.1026,1.1018,1.1028,1.1081,1.1126,1.1132,1.113,1.1107,1.1132,1.1141,1.1124,1.1215,1.1186,1.1197,1.1233,1.1322,1.1328,1.1333,1.1371,1.1383,1.1392,0,0,0,0,0,0,1.1007,1.1029,1.102,1.1079,1.1101,1.1121,1.1152,1.1142,1.117,1.1165,1.1161,1.1167,1.1223,1.1233,1.12,1.13,1.1265,1.1273,1.1291,1.1301,1.131,1.1306,1.1166,0,0,0,0,0,1.1021,1.1056,1.1073,1.1124,1.1135,1.1142,1.1162,1.1159,1.1181,1.119,1.1202,1.1224,1.1258,1.128,1.1312,1.1377,1.1383,1.1407,1.1416,1.1423,1.143,1.1468,1.148,1.1354,1.1353,1.1353,0,0,1.105,1.1066,1.1088,1.1131,1.1147,1.1184,1.115,1.1189,1.1217,1.1195,1.1247,1.1258,1.1282,1.1343,1.137,1.1353,1.1466,1.143,1.1435,1.1438,1.1474,1.1486,1.1497,1.1357,1.1357,1.1356,0,0,1.1122,1.1137,1.1182,1.1201,1.1227,1.1232,1.1243,1.1265,1.1272,1.1324,1.1309,1.1343,1.14,1.1419,1.1436,1.152,1.1507,1.1531,1.1575,1.1613,1.1622,1.1631,1.1663,1.1674,1.1537,1.1538,1.1538,0,1.1154,1.1209,1.1207,1.1249,1.1269,1.1253,1.13,1.1317,1.1352,1.1367,1.1348,1.1423,1.1438,1.1504,1.1525,1.1539,1.1552,1.1528,1.1621,1.163,1.1638,1.1669,1.168,1.154,1.154,1.154,1.154,0,1.1249,1.1288,1.1322,1.1358,1.1382,1.1426,1.1432,1.1456,1.1452,1.146,1.1515,1.1533,1.1569,1.1585,1.158,1.1651,1.1641,1.1622,1.1587,1.1653,1.1682,1.1693,1.1544,1.1543,1.1543,1.1542,0,0,1.134,1.1377,1.139,1.1407,1.1437,1.1467,1.1512,1.1549,1.1571,1.1596,1.1635,1.1686,1.167,1.169,1.1687,1.172,1.1788,1.1697,1.1698,1.1715,1.1871,1.1886,1.1899,1.178,1.1782,1.1784,1.1869,0,1.1415,1.1494,1.1495,1.1567,1.1605,1.1591,1.1631,1.1654,1.1663,1.1696,1.1706,1.1743,1.1718,1.173,1.1762,1.1773,1.182,1.1767,1.1817,1.1818,1.1812,1.1914,1.1929,1.2008,1.188,1.1882,1.1883,0,1.1512,1.1544,1.162,1.1648,1.1663,1.1699,1.1735,1.1766,1.1793,1.1798,1.1822,1.1816,1.1863,1.1827,1.1893,1.1858,1.1878,1.1887,1.189,1.1895,1.1855,1.1922,1.2033,1.2046,1.1901,1.1899,1.1898,0,1.1574,1.1634,1.1689,1.1704,1.1737,1.1763,1.1778,1.1802,1.1826,1.1857,1.1873,1.1909,1.1929,1.1957,1.1962,1.1935,1.2029,1.1993,1.2035,1.2035,1.2055,1.2054,1.2172,1.2067,1.2067,1.2067,1.2067,0,1.1658,1.1706,1.1717,1.1751,1.1805,1.1807,1.1861,1.1874,1.1897,1.1934,1.1924,1.1959,1.1962,1.1998,1.2002,1.2058,1.2066,1.2072,1.2073,1.2074,1.2073,1.2087,1.2082,1.207,1.2069,1.2069,1.2068,0,1.1735,1.1744,1.1803,1.1831,1.1839,1.1878,1.1902,1.1935,1.1944,1.1991,1.2002,1.2017,1.2059,1.2067,1.2116,1.2119,1.2186,1.218,1.2177,1.2177,1.2219,1.2216,1.2351,1.237,1.2252,1.2253,1.2254,0,1.1788,1.1825,1.1858,1.1882,1.1899,1.1938,1.1963,1.1967,1.1993,1.2029,1.2058,1.21,1.2134,1.2203,1.2218,1.2257,1.2253,1.2298,1.2258,1.2259,1.2255,1.2254,1.2258,1.2305,1.2306,1.2307,1.2308,0,1.1882,1.1886,1.1922,1.1961,1.1991,1.2022,1.2051,1.2071,1.208,1.211,1.2154,1.2181,1.2233,1.2276,1.2315,1.2331,1.2322,1.2321,1.2333,1.2334,1.2332,1.2336,1.2199,1.2318,1.2317,1.2316,1.2315,1.2315,1.195,1.1984,1.2013,1.2054,1.2077,1.2105,1.2139,1.2154,1.2191,1.2234,1.2235,1.2284,1.2313,1.2365,1.2384,1.2423,1.2409,1.2426,1.243,1.2435,1.244,1.2326,1.243,1.243,1.243,1.243,1.2429,0,1.2046,1.2065,1.2103,1.2145,1.2178,1.2168,1.2201,1.2229,1.2273,1.2301,1.2336,1.2388,1.243,1.245,1.2492,1.252,1.2517,1.2531,1.2529,1.2534,1.2449,1.2435,1.2533,1.2533,1.2533,1.2533,1.2533,1.2533,1.2099,1.2157,1.2165,1.2234,1.2253,1.2302,1.2321,1.2348,1.2371,1.2431,1.2466,1.2479,1.2505,1.2549,1.2588,1.2593,1.261,1.2626,1.2629,1.255,1.2539,1.2529,1.2516,1.2629,1.2629,1.271,1.2711,1.2711]}]]